TimeEST,TemperatureF,Dew PointF,Humidity,Sea Level PressureIn,VisibilityMPH,Wind Direction,Wind SpeedMPH,Gust SpeedMPH,PrecipitationIn,Events,Conditions,WindDirDegrees,DateUTC
12:53 AM,28.0,21.0,75,30.32,10.0,North,5.8,-,N/A,,Clear,350,2013-01-15 05:53:00
1:53 AM,27.0,21.0,78,30.34,8.0,North,4.6,-,N/A,,Clear,350,2013-01-15 06:53:00
2:53 AM,26.1,21.0,81,30.34,8.0,North,4.6,-,N/A,,Clear,360,2013-01-15 07:53:00
3:13 AM,26.6,21.2,80,30.31,8.0,North,5.8,-,N/A,,Mostly Cloudy,10,2013-01-15 08:13:00
3:53 AM,27.0,21.0,78,30.35,8.0,NNE,8.1,-,N/A,,Overcast,20,2013-01-15 08:53:00
4:41 AM,26.6,19.4,74,30.31,8.0,North,5.8,-,N/A,,Scattered Clouds,360,2013-01-15 09:41:00
4:53 AM,25.0,19.9,81,30.35,7.0,North,4.6,-,N/A,,Partly Cloudy,360,2013-01-15 09:53:00
5:53 AM,25.0,19.9,81,30.35,8.0,North,4.6,-,N/A,,Clear,360,2013-01-15 10:53:00
7:53 AM,24.1,19.0,81,30.39,7.0,North,4.6,-,N/A,,Clear,10,2013-01-15 12:53:00
8:53 AM,25.0,19.9,81,30.40,7.0,NE,4.6,-,N/A,,Clear,50,2013-01-15 13:53:00
9:53 AM,27.0,21.0,78,30.40,9.0,NNE,9.2,-,N/A,,Clear,30,2013-01-15 14:53:00
10:53 AM,28.9,19.9,69,30.38,10.0,ENE,8.1,-,N/A,,Partly Cloudy,60,2013-01-15 15:53:00
11:53 AM,30.0,21.0,69,30.35,10.0,NE,8.1,-,N/A,,Clear,50,2013-01-15 16:53:00
12:53 PM,30.9,21.0,67,30.32,10.0,ENE,9.2,-,N/A,,Clear,60,2013-01-15 17:53:00
1:53 PM,32.0,19.9,61,30.28,10.0,NE,8.1,-,N/A,,Clear,40,2013-01-15 18:53:00
2:53 PM,32.0,21.0,64,30.27,10.0,NNE,6.9,-,N/A,,Clear,30,2013-01-15 19:53:00
3:53 PM,32.0,21.0,64,30.26,10.0,NE,9.2,-,N/A,,Clear,40,2013-01-15 20:53:00
4:53 PM,32.0,21.9,66,30.26,10.0,NNE,5.8,-,N/A,,Clear,20,2013-01-15 21:53:00
5:53 PM,32.0,21.9,66,30.27,10.0,North,3.5,-,N/A,,Clear,10,2013-01-15 22:53:00
6:53 PM,32.0,21.9,66,30.22,10.0,ENE,5.8,-,N/A,,Clear,60,2013-01-15 23:53:00
7:53 PM,32.0,21.9,66,30.21,10.0,NNE,4.6,-,N/A,,Clear,20,2013-01-16 00:53:00
8:53 PM,32.0,21.9,66,30.19,10.0,NE,3.5,-,N/A,,Overcast,40,2013-01-16 01:53:00
9:53 PM,32.0,21.9,66,30.15,10.0,NE,4.6,-,N/A,,Overcast,50,2013-01-16 02:53:00
10:53 PM,32.0,21.9,66,30.12,10.0,NE,4.6,-,N/A,,Overcast,40,2013-01-16 03:53:00
11:53 PM,32.0,21.9,66,30.09,10.0,North,3.5,-,N/A,,Overcast,10,2013-01-16 04:53:00